Weather in Tes'

Russia / Krasnoyarsk Krai     53°51′59″N   92°10′59″E
temp.,
°C
wind,
m/s
gust,
m/s
humid.,
%
clouds,
%
prec.,
mm/h
press.,
hPa
HPBL,
m
16 april, fri
fri1601:00+1sse22926 0.0 102440
04:000se11928 0.0 102311
07:00+2sse128876 0.0 102252
10:00+6s257798 0.0 1019340
13:00+9ssw486988 0.0 1018726
16:00+11wsw51166100 0.1 1015512
19:00+11wsw386532 0.1 1014214
22:00+7ssw311805 0.0 1014236
17 april, sat
sat1701:00+8sw615745 0.0 1012557
04:00+9sw61568100 0.0 1010672
07:00+1nw61191100 0.2 1014435
10:00+1nnw61076100 1.1 1016885
13:00+3nnw4664100 1.3 10191227
16:00+3n4452100 0.1 10191430
19:00+1nne2359100 0.1 1020311
22:00−1nnw2469100 0.0 1021117
18 april, sun
sun1801:00−1nw2468100 0.0 1022230
04:00−2ssw116994 0.0 102272
07:00−1sse2368100 0.0 1022388
10:00+2sse2358100 0.0 1019930
13:00+6wsw5854100 0.0 10171678
16:00+7sw3849100 0.0 10141817
19:00+5ssw2468100 0.0 1013107
22:00+3ssw2672100 0.0 1012118
19 april, mon
mon1901:00+3sse3977100 0.0 1008239
04:00+4ssw41172100 0.1 1002325
07:00+5wsw81472100 0.2 1003859
10:00+6wsw81371100 0.2 10061567
13:000nnw7976100 2.6 1013992
16:000nnw6855100 0.1 10181501
19:00−2nnw3455100 0.1 10221226
22:00−4n3467100 0.1 1025820
20 april, tue
tue2001:00−5n2262100 0.1 1026710
04:00−5w2377100 0.1 1027508
07:00−5nw3462100 0.2 1028830
10:00−3nw3441100 0.0 10281694
13:00−2nw3434100 0.0 10272197
16:00−1nnw3330100 0.0 10262228
19:00−2n333627 0.0 1026816
22:00−5nne114929 0.0 102719